Location: ?????????
(54.7630°N, 39.4991°E)
Time: 05:10:20
(UTC+00:00)

Cosmos 1656 - Pass Details

Date: 14 April 2026
Orbit: 798 x 846 km, 71.1° (Epoch: 10 May)

Event Time Altitude Azimuth Distance (km) Brightness Sun altitude
Rises 20:15:38 0° 326° (NNW) 3,317 8.1 -24.1°
Reaches altitude 10° 20:18:09 10° 333° (NNW) 2,385 7.1 -24.2°
Maximum altitude 20:23:25 48° 47° (NE) 1,047 4.3 -24.4°
Enters shadow 20:25:10 36° 95° (E) 1,267 4.4 -24.5°
